TimePDT,TemperatureF,Dew PointF,Humidity,Sea Level PressureIn,VisibilityMPH,Wind Direction,Wind SpeedMPH,Gust SpeedMPH,PrecipitationIn,Events,Conditions,WindDirDegrees,DateUTC
12:56 AM,46.0,46.0,100,29.98,10.0,Calm,Calm,-,N/A,,Overcast,0,2013-04-04 07:56:00
1:56 AM,46.0,45.0,96,29.95,10.0,Calm,Calm,-,N/A,,Overcast,0,2013-04-04 08:56:00
2:56 AM,46.9,45.0,93,29.93,10.0,Calm,Calm,-,N/A,,Overcast,0,2013-04-04 09:56:00
3:56 AM,46.9,44.1,90,29.91,10.0,WSW,3.5,-,N/A,,Overcast,240,2013-04-04 10:56:00
4:56 AM,46.9,44.1,90,29.88,10.0,Calm,Calm,-,N/A,,Overcast,0,2013-04-04 11:56:00
5:56 AM,46.0,45.0,96,29.86,10.0,Calm,Calm,-,N/A,,Overcast,0,2013-04-04 12:56:00
6:56 AM,46.0,44.1,93,29.83,10.0,Calm,Calm,-,N/A,,Overcast,0,2013-04-04 13:56:00
7:56 AM,48.0,45.0,89,29.82,10.0,SSE,3.5,-,N/A,,Overcast,160,2013-04-04 14:56:00
8:33 AM,48.2,46.4,93,29.79,9.0,Calm,Calm,-,0.00,Rain,Light Rain,0,2013-04-04 15:33:00
8:56 AM,48.0,45.0,89,29.79,9.0,Calm,Calm,-,0.00,Rain,Light Rain,0,2013-04-04 15:56:00
9:56 AM,50.0,48.0,93,29.77,8.0,Calm,Calm,-,0.01,Rain,Light Rain,0,2013-04-04 16:56:00
10:56 AM,50.0,48.0,93,29.76,8.0,Calm,Calm,-,0.01,Rain,Light Rain,0,2013-04-04 17:56:00
11:56 AM,51.1,48.9,92,29.74,7.0,Calm,Calm,-,0.03,Rain,Light Rain,0,2013-04-04 18:56:00
12:56 PM,52.0,50.0,93,29.72,6.0,ESE,5.8,-,0.03,Rain,Light Rain,110,2013-04-04 19:56:00
1:56 PM,52.0,50.0,93,29.69,6.0,ESE,5.8,-,0.05,Rain,Light Rain,110,2013-04-04 20:56:00
2:56 PM,52.0,50.0,93,29.68,5.0,East,6.9,-,0.05,Rain,Rain,100,2013-04-04 21:56:00
3:56 PM,52.0,51.1,97,29.65,5.0,ESE,15.0,-,0.05,Rain,Light Rain,120,2013-04-04 22:56:00
4:56 PM,54.0,52.0,93,29.64,6.0,ESE,13.8,-,0.08,Rain,Light Rain,120,2013-04-04 23:56:00
5:16 PM,53.6,51.8,94,29.61,10.0,ESE,17.3,-,0.01,,Overcast,120,2013-04-05 00:16:00
5:56 PM,54.0,52.0,93,29.61,10.0,ESE,13.8,-,0.01,Rain,Light Rain,120,2013-04-05 00:56:00
6:22 PM,53.6,51.8,94,29.59,10.0,SE,17.3,25.3,0.00,,Overcast,130,2013-04-05 01:22:00
6:56 PM,55.0,52.0,89,29.58,10.0,SE,25.3,33.4,0.00,,Overcast,140,2013-04-05 01:56:00
7:56 PM,54.0,50.0,86,29.61,10.0,SSE,26.5,36.8,N/A,,Overcast,160,2013-04-05 02:56:00
8:34 PM,55.4,50.0,82,29.61,10.0,SSE,27.6,33.4,N/A,,Overcast,160,2013-04-05 03:34:00
8:56 PM,54.0,48.9,83,29.63,10.0,SSE,26.5,32.2,N/A,,Overcast,160,2013-04-05 03:56:00
9:56 PM,53.1,48.9,86,29.64,10.0,SSE,26.5,38.0,N/A,,Mostly Cloudy,160,2013-04-05 04:56:00
10:56 PM,54.0,48.9,83,29.65,10.0,SSE,31.1,40.3,N/A,,Mostly Cloudy,150,2013-04-05 05:56:00
11:56 PM,53.1,48.9,86,29.67,10.0,SSE,23.0,29.9,N/A,,Mostly Cloudy,150,2013-04-05 06:56:00